Location: Bullenkuhlen
(53.7689°N, 9.7495°E)
Time: 00:53:00
(UTC+00:00)

Cosmos 44 Rocket - Pass Details

Date: 09 April 2020
Orbit: 656 x 734 km, 65.1° (Epoch: 30 May)

Event Time Altitude Azimuth Distance (km) Brightness Sun altitude
Exits shadow 23:54:00 52° 51° (NE) 825 3.8 -27.8°
Drops below altitude 10° 23:57:35 10° 45° (NE) 2,086 6.4 -27.7°
Sets 23:59:54 0° 45° (NE) 3,008 7.4 -27.7°
